Weather in Borisogleb

Russia / Vladimir Oblast     55°42′47″N   42°00′51″E
temp.,
°C
wind,
m/s
gust,
m/s
humid.,
%
clouds,
%
prec.,
mm/h
press.,
hPa
HPBL,
m
1 march, mon
mon100:00−12nnw229693 0.0 102121
03:00−12nw239683 0.1 102221
06:00−10wnw2296100 0.0 102330
09:00−8wsw2495100 0.1 1024147
12:00−4wsw469160 0.0 1023471
15:00−2wsw588679 0.1 1021751
18:00−2wsw51192100 0.1 1018592
21:00−1wsw61292100 0.1 1015572
2 march, tue
tue200:00+1w61395100 0.1 1011679
03:00+1w61293100 0.1 1009567
06:00+1w61297100 0.1 1006731
09:00+1wnw61198100 0.5 1005649
12:00+1wnw5109483 0.6 1004817
15:00+1nw5108873 0.7 1004831
18:00−1wnw4109098 0.1 1005358
21:00−2wnw4109499 0.3 1006430
3 march, wed
wed300:00−3nw4996100 0.2 1006348
03:00−4nw5128797 0.3 1007603
06:00−7nw5119280 0.1 1008557
09:00−7nw6119089 0.1 1011612
12:00−4nw61081100 0.0 1011906
15:00−2wnw587958 0.0 10111034
18:00−4w4109394 0.1 1010331
21:00−3w4119493 0.1 1010414
4 march, thu
thu400:00−4w5119395 0.0 1009361
03:00−5wsw5119397 0.1 1007369
06:00−3sw6139299 0.0 1004582
09:00−1wsw8159399 0.4 1000886
12:000wsw81495100 0.8 9981061
15:000wsw71296100 1.1 997892
18:000wsw61197100 1.1 995679
21:00−1w61298100 2.8 995640
5 march, fri
fri500:00−4nw41090100 1.1 998425
03:00−8wnw499150 1.1 1002216
06:00−10wnw37940 0.0 1006149
09:00−9wnw36920 0.0 1008273
12:00−5wnw358328 0.0 1010585
15:00−4wnw357930 0.0 1011861
18:00−8wnw238724 0.0 101221
21:00−11wnw129012 0.0 101421